Disclaimer

Please do not use the information listed here in-flight or in-navigation, as they are not provided to us by the airports but are provided by volunteers, so they might be outdated.

Search


Regions


Airport information page

Radio informations:
Automatic Terminal Information Service (ATIS) - 126.65 MHz
INFO - 118.15 MHz

Airport informations:
Latitude: 38° 19' 32.44" N
Longitude: 048° 25' 27.68" E
Elevation: 4315 feet - 1315 meters
Operating hours: Remarks
Operating agency: Civil government, landing fees and diplomatic clearance may be required
Timezone: UTC+3:30
Fuel: Jet A1, without icing nhibitor.

Runway information:
15/33 - 10823 x 148 feet< - >3299 x 45 meters

Recent METARs:
OITL 211950Z 28008KT CAVOK M10/M12 Q1016
OITL 211950Z 28008KT CAVOK M10/M12 Q1016
OITL 212050Z 30008KT CAVOK M11/M13 Q1016

Airport on the map: